Погода в Ривере

Уругвай     30°54′09″S   55°32′00″W
темп.,
°C
ветер,
м/с
пор.,
м/с
влажн.,
%
обл.,
%
осадки,
мм/ч
давл.,
гПа
погр.,
м
9 августа, вт
вт900:00+10юв4108797 0.1 1025502
03:00+9ююв41090100 0.3 1025491
06:00+8ююв51194100 0.6 1026514
09:00+8ююв51295100 2.4 1027545
12:00+12юв6981100 0.1 10271022
15:00+12юв51078100 0.2 10251273
18:00+11ююв5117792 0.1 1026765
21:00+9юв5128275 0.1 1028568
10 августа, ср
ср1000:00+7ююв411890 0.0 1029409
03:00+5ю39953 0.0 1028267
06:00+4ююв39961 0.0 1028242
09:00+6юв37820 0.0 1028286
12:00+12вюв46640 0.0 1028876
15:00+14вюв34615 0.0 10251153
18:00+10юв2281100 0.0 102534
21:00+8вюв238878 0.0 102551
11 августа, чт
чт1100:00+7в229410 0.0 102625
03:00+6св229595 0.0 102530
06:00+5св22950 0.0 102533
09:00+8св24850 0.0 1026190
12:00+14св46660 0.0 1026726
15:00+16ссв356513 0.0 10231145
18:00+13св36850 0.0 1022114
21:00+10всв37932 0.0 1022121
12 августа, пт
пт1200:00+9св311955 0.0 1022244
03:00+8св31295100 0.0 1021319
06:00+8св31096100 0.0 1020236
09:00+10св4890100 0.0 1020237
12:00+16ссв4873100 0.0 1019583
15:00+18ссв5768100 0.0 10171039
18:00+15св2489100 0.0 101664
21:00+12всв2595100 0.0 101896
13 августа, сб
сб1300:00+11св3897100 0.0 1018172
03:00+11св2296100 0.0 101728
06:00+11всв2295100 0.0 101719
09:00+13св2388100 0.0 1018138
12:00+19св34711 0.0 1018540
15:00+21св22650 0.0 1016889
18:00+17в23850 0.0 101648
21:00+14всв37950 0.0 1016143